GW1081 Weather Reports


time (UTC)temp
C
wind
direction
speed
KPH
gust
KPH
rain 1hr
cm
rain 24hr
cm
rain mn
cm
humidity
%
barometer
mb
20260906220313 33 214 14.5 32.2 0.00 0.00 0.00 24 1015.3
20260906215834 33 157 17.7 32.2 0.00 0.00 0.00 25 1015.4
20260906215311 33 120 6.4 27.4 0.00 0.00 0.00 25 1015.5
20260906214812 33 94 14.5 27.4 0.00 0.00 0.00 24 1015.6
20260906214331 33 160 19.3 27.4 0.00 0.00 0.00 25 1015.8
20260906213851 33 131 16.1 29.0 0.00 0.00 0.00 25 1015.9
20260906213329 33 135 20.9 29.0 0.00 0.00 0.00 24 1015.8
20260906212849 33 93 12.9 20.9 0.00 0.00 0.00 24 1015.9
20260906212325 33 151 9.7 20.9 0.00 0.00 0.00 24 1015.9
20260906211825 33 149 11.3 20.9 0.00 0.00 0.00 24 1015.9
20260906211324 33 98 9.7 19.3 0.00 0.00 0.00 23 1016.1
20260906210824 33 145 12.9 19.3 0.00 0.00 0.00 23 1016.1
20260906210324 33 203 11.3 22.5 0.00 0.00 0.00 23 1016.1
20260906205824 33 139 12.9 20.9 0.00 0.00 0.00 23 1016.2
20260906205320 33 150 11.3 22.5 0.00 0.00 0.00 24 1016.4
20260906204820 33 158 14.5 22.5 0.00 0.00 0.00 24 1016.4
20260906204320 33 146 8.0 25.7 0.00 0.00 0.00 24 1016.5
20260906203820 33 200 12.9 25.7 0.00 0.00 0.00 25 1016.6
20260906203321 33 138 9.7 17.7 0.00 0.00 0.00 27 1016.6
20260906202820 33 205 3.2 17.7 0.00 0.00 0.00 26 1016.7
20260906202319 33 240 4.8 14.5 0.00 0.00 0.00 27 1016.7
20260906201838 32 156 8.0 17.7 0.00 0.00 0.00 30 1016.8
20260906201333 32 195 9.7 17.7 0.00 0.00 0.00 28 1016.9
20260906200812 32 200 6.4 22.5 0.00 0.00 0.00 29 1017.0
20260906200330 32 117 12.9 22.5 0.00 0.00 0.00 30 1017.0
20260906195811 32 214 8.0 20.9 0.00 0.00 0.00 29 1017.1
20260906195312 32 111 12.9 19.3 0.00 0.00 0.00 31 1017.2
20260906194831 32 160 9.7 20.9 0.00 0.00 0.00 31 1017.3
20260906194351 32 205 9.7 25.7 0.00 0.00 0.00 30 1017.3
20260906193829 32 155 14.5 25.7 0.00 0.00 0.00 30 1017.4
20260906193311 32 86 14.5 24.1 0.00 0.00 0.00 31 1017.5
20260906192812 32 99 14.5 24.1 0.00 0.00 0.00 30 1017.5
20260906192312 31 77 11.3 24.1 0.00 0.00 0.00 31 1017.5
20260906191830 32 163 12.9 20.9 0.00 0.00 0.00 31 1017.7
20260906191330 31 85 11.3 20.9 0.00 0.00 0.00 31 1017.7
20260906190832 31 178 11.3 19.3 0.00 0.00 0.00 31 1017.8
20260906190352 31 167 8.0 16.1 0.00 0.00 0.00 31 1017.9
20260906185849 31 236 8.0 20.9 0.00 0.00 0.00 32 1017.9
20260906185327 31 207 6.4 20.9 0.00 0.00 0.00 33 1018.0
20260906184827 31 111 1.6 20.9 0.00 0.00 0.00 34 1018.1
20260906184326 31 134 8.0 20.9 0.00 0.00 0.00 33 1018.2
20260906183846 31 203 12.9 19.3 0.00 0.00 0.00 32 1018.3
20260906183321 30 212 8.0 16.1 0.00 0.00 0.00 34 1018.3
20260906182820 30 228 9.7 16.1 0.00 0.00 0.00 34 1018.5
20260906182319 30 154 6.4 22.5 0.00 0.00 0.00 35 1018.5
20260906181818 30 126 11.3 24.1 0.00 0.00 0.00 38 1018.6
20260906181317 30 146 6.4 22.5 0.00 0.00 0.00 38 1018.7
20260906180817 29 125 14.5 24.1 0.00 0.00 0.00 38 1018.8
20260906180334 29 101 19.3 25.7 0.00 0.00 0.00 39 1018.9
20260906175813 29 139 14.5 25.7 0.00 0.00 0.00 41 1019.0
20260906175331 28 208 12.9 24.1 0.00 0.00 0.00 41 1019.2
20260906174830 28 173 12.9 24.1 0.00 0.00 0.00 42 1019.3
20260906174331 28 163 14.5 24.1 0.00 0.00 0.00 43 1019.4
20260906173850 28 170 14.5 27.4 0.00 0.00 0.00 44 1019.4
20260906173327 28 177 12.9 30.6 0.00 0.00 0.00 44 1019.5
20260906172826 27 114 20.9 32.2 0.00 0.00 0.00 45 1019.5
20260906172326 27 130 20.9 33.8 0.00 0.00 0.00 45 1019.6
20260906171824 27 127 20.9 33.8 0.00 0.00 0.00 46 1019.7
20260906171323 27 173 20.9 30.6 0.00 0.00 0.00 47 1019.7
20260906170823 27 108 22.5 30.6 0.00 0.00 0.00 47 1019.8
20260906170323 27 98 20.9 30.6 0.00 0.00 0.00 46 1019.8
20260906165822 27 97 16.1 25.7 0.00 0.00 0.00 47 1019.9
20260906165322 27 214 14.5 30.6 0.00 0.00 0.00 48 1019.9
20260906164841 26 155 16.1 30.6 0.00 0.00 0.00 48 1020.0
20260906164321 26 144 16.1 25.7 0.00 0.00 0.00 48 1020.0
20260906163822 26 139 17.7 29.0 0.00 0.00 0.00 48 1020.1
20260906163338 26 125 17.7 29.0 0.00 0.00 0.00 49 1020.1
20260906162818 26 141 19.3 29.0 0.00 0.00 0.00 49 1020.1
20260906162338 26 165 16.1 35.4 0.00 0.00 0.00 49 1020.3
20260906161816 26 172 22.5 33.8 0.00 0.00 0.00 48 1020.3
20260906161316 26 129 16.1 32.2 0.00 0.00 0.00 50 1020.3
20260906160813 25 180 20.9 35.4 0.00 0.00 0.00 50 1020.5
20260906160313 25 150 22.5 37.0 0.00 0.00 0.00 51 1020.6
20260906155812 25 162 27.4 38.6 0.00 0.00 0.00 51 1020.6
20260906155332 25 167 24.1 38.6 0.00 0.00 0.00 51 1020.5
20260906154830 25 159 17.7 37.0 0.00 0.00 0.00 52 1020.5
20260906154350 24 145 19.3 37.0 0.00 0.00 0.00 53 1020.6
20260906153830 24 167 22.5 35.4 0.00 0.00 0.00 52 1020.6
20260906153330 24 167 16.1 38.6 0.00 0.00 0.00 53 1020.5
20260906152831 23 143 20.9 38.6 0.00 0.00 0.00 54 1020.6
20260906152330 23 138 25.7 43.5 0.00 0.00 0.00 54 1020.5
20260906151849 23 149 20.9 43.5 0.00 0.00 0.00 55 1020.6
20260906151327 23 119 22.5 35.4 0.00 0.00 0.00 56 1020.6
20260906150826 23 157 20.9 38.6 0.00 0.00 0.00 57 1020.5
20260906150326 23 127 24.1 37.0 0.00 0.00 0.00 56 1020.5
20260906145825 23 145 16.1 38.6 0.00 0.00 0.00 57 1020.6
20260906145326 23 120 22.5 38.6 0.00 0.00 0.00 57 1020.5
20260906144824 23 129 14.5 29.0 0.00 0.00 0.00 58 1020.6
20260906144323 23 124 16.1 33.8 0.00 0.00 0.00 59 1020.5
20260906143823 22 136 17.7 33.8 0.00 0.00 0.00 59 1020.6
20260906143323 22 128 12.9 32.2 0.00 0.00 0.00 61 1020.5
20260906142824 22 148 17.7 38.6 0.00 0.00 0.00 61 1020.4
20260906142323 22 152 16.1 29.0 0.00 0.00 0.00 61 1020.5
20260906141844 21 148 14.5 29.0 0.00 0.00 0.00 62 1020.4
20260906141323 21 127 11.3 29.0 0.00 0.00 0.00 63 1020.4
20260906140844 21 152 14.5 29.0 0.00 0.00 0.00 64 1020.4
20260906140323 21 135 11.3 22.5 0.00 0.00 0.00 64 1020.4
20260906135823 20 143 9.7 22.5 0.00 0.00 0.00 65 1020.4
20260906135322 20 159 16.1 22.5 0.00 0.00 0.00 65 1020.4
20260906134843 20 158 11.3 16.1 0.00 0.00 0.00 67 1020.3
20260906134341 20 165 8.0 19.3 0.00 0.00 0.00 68 1020.4
20260906133822 19 175 12.9 19.3 0.00 0.00 0.00 69 1020.4
20260906133322 19 202 11.3 19.3 0.00 0.00 0.00 69 1020.4
20260906132843 19 203 8.0 20.9 0.00 0.00 0.00 70 1020.3
20260906132321 18 207 8.0 20.9 0.00 0.00 0.00 70 1020.3
20260906131838 18 188 8.0 16.1 0.00 0.00 0.00 70 1020.3
20260906131317 18 184 9.7 16.1 0.00 0.00 0.00 71 1020.2
20260906130818 18 187 8.0 16.1 0.00 0.00 0.00 71 1020.2
20260906130338 18 205 8.0 16.1 0.00 0.00 0.00 72 1020.3
20260906125817 18 139 9.7 16.1 0.00 0.00 0.00 72 1020.2
20260906125318 18 169 8.0 14.5 0.00 0.00 0.00 73 1020.2
20260906124818 18 150 8.0 14.5 0.00 0.00 0.00 73 1020.1
20260906124317 18 153 8.0 16.1 0.00 0.00 0.00 74 1020.1
20260906123817 17 217 9.7 16.1 0.00 0.00 0.00 73 1020.1
20260906123317 18 205 8.0 17.7 0.00 0.00 0.00 73 1020.1
20260906122815 18 224 12.9 17.7 0.00 0.00 0.00 73 1020.1
20260906122316 18 194 11.3 16.1 0.00 0.00 0.00 72 1019.9
20260906121816 18 162 11.3 17.7 0.00 0.00 0.00 72 1020.0
20260906121315 18 167 11.3 17.7 0.00 0.00 0.00 71 1020.1
20260906120834 18 153 11.3 20.9 0.00 0.00 0.00 71 1020.2
20260906120312 18 191 9.7 20.9 0.00 0.00 0.00 71 1020.2
20260906115813 18 216 11.3 17.7 0.00 0.00 0.00 71 1020.1
20260906115314 18 181 9.7 17.7 0.00 0.00 0.00 70 1020.1
20260906114815 18 206 9.7 16.1 0.00 0.00 0.00 70 1020.1
20260906114314 18 185 8.0 20.9 0.00 0.00 0.00 69 1020.1
20260906113813 19 174 9.7 20.9 0.00 0.00 0.00 69 1020.0
20260906113312 19 193 9.7 19.3 0.00 0.00 0.00 68 1019.9
20260906112833 19 209 11.3 19.3 0.00 0.00 0.00 68 1019.9
20260906112314 20 162 11.3 20.9 0.00 0.00 0.00 68 1019.8
20260906111834 20 142 12.9 25.7 0.00 0.00 0.00 68 1019.8
20260906111313 20 201 12.9 22.5 0.00 0.00 0.00 68 1019.8
20260906110812 20 212 9.7 17.7 0.00 0.00 0.00 67 1019.8
20260906110312 20 177 11.3 19.3 0.00 0.00 0.00 67 1019.8
20260906105813 20 150 11.3 22.5 0.00 0.00 0.00 67 1019.7
20260906105333 20 183 11.3 22.5 0.00 0.00 0.00 66 1019.8
20260906104813 20 141 11.3 19.3 0.00 0.00 0.00 66 1019.8
20260906104314 20 172 12.9 19.3 0.00 0.00 0.00 66 1019.8
20260906103834 20 181 11.3 19.3 0.00 0.00 0.00 67 1019.8
20260906103313 20 197 11.3 19.3 0.00 0.00 0.00 67 1019.8
20260906102814 20 155 9.7 17.7 0.00 0.00 0.00 66 1019.8
20260906102313 20 165 9.7 17.7 0.00 0.00 0.00 66 1019.9
20260906101813 20 201 8.0 19.3 0.00 0.00 0.00 66 1020.0
20260906101314 20 136 9.7 25.7 0.00 0.00 0.00 66 1020.0
20260906100817 20 146 12.9 25.7 0.00 0.00 0.00 67 1019.8
20260906100338 20 214 9.7 16.1 0.00 0.00 0.00 67 1019.8
20260906095817 20 216 8.0 16.1 0.00 0.00 0.00 68 1019.9
20260906095318 20 158 9.7 19.3 0.00 0.00 0.00 68 1019.9
20260906094818 20 201 8.0 19.3 0.00 0.00 0.00 68 1019.9
20260906094319 20 162 6.4 16.1 0.00 0.00 0.00 68 1020.0
20260906093820 20 198 8.0 12.9 0.00 0.00 0.00 68 1020.0
20260906093318 20 148 8.0 12.9 0.00 0.00 0.00 69 1020.0
20260906092819 20 219 6.4 9.7 0.00 0.00 0.00 69 1019.9
20260906092320 20 193 4.8 6.4 0.00 0.00 0.00 69 1019.8
20260906091821 20 172 3.2 9.7 0.00 0.00 0.00 68 1019.7
20260906091321 20 208 4.8 11.3 0.00 0.00 0.00 68 1019.7
20260906090823 20 149 6.4 9.7 0.00 0.00 0.00 69 1019.8
20260906090324 19 200 4.8 8.0 0.00 0.00 0.00 70 1019.8
20260906085845 19 156 4.8 8.0 0.00 0.00 0.00 72 1019.8
20260906085324 19 142 3.2 6.4 0.00 0.00 0.00 70 1019.9
20260906084824 20 135 4.8 6.4 0.00 0.00 0.00 69 1019.8
20260906084323 20 120 4.8 8.0 0.00 0.00 0.00 68 1019.9
20260906083823 20 148 6.4 8.0 0.00 0.00 0.00 68 1019.8
20260906083342 20 136 6.4 6.4 0.00 0.00 0.00 68 1019.9
20260906082819 20 108 3.2 8.0 0.00 0.00 0.00 63 1019.9
20260906082317 20 148 4.8 9.7 0.00 0.00 0.00 65 1019.8
20260906081817 20 159 4.8 12.9 0.00 0.00 0.00 64 1019.8
20260906081317 20 195 4.8 12.9 0.00 0.00 0.00 63 1020.0
20260906080816 20 159 4.8 11.3 0.00 0.00 0.00 63 1020.0
20260906080316 20 150 4.8 8.0 0.00 0.00 0.00 62 1020.0
20260906075814 21 186 4.8 8.0 0.00 0.00 0.00 61 1020.0
20260906075312 21 146 4.8 8.0 0.00 0.00 0.00 60 1020.1
20260906074833 21 126 3.2 6.4 0.00 0.00 0.00 61 1020.1
20260906074326 21 132 3.2 8.0 0.00 0.00 0.00 58 1020.2
20260906073842 21 139 4.8 9.7 0.00 0.00 0.00 58 1020.2
20260906073340 21 139 4.8 8.0 0.00 0.00 0.00 57 1020.3
20260906072819 21 137 3.2 6.4 0.00 0.00 0.00 56 1020.3
20260906072318 21 155 3.2 4.8 0.00 0.00 0.00 55 1020.4
20260906071817 21 132 1.6 3.2 0.00 0.00 0.00 54 1020.3
20260906071316 22 148 1.6 4.8 0.00 0.00 0.00 53 1020.3
20260906070815 22 148 3.2 4.8 0.00 0.00 0.00 52 1020.3
20260906070312 22 113 3.2 8.0 0.00 0.00 0.00 51 1020.2
20260906065831 22 131 6.4 8.0 0.00 0.00 0.00 51 1020.3
20260906065351 22 200 3.2 8.0 0.00 0.00 0.00 51 1020.3
20260906064831 22 205 4.8 11.3 0.00 0.00 0.00 51 1020.4
20260906064331 22 193 4.8 12.9 0.00 0.00 0.00 50 1020.3
20260906063812 22 200 4.8 14.5 0.00 0.00 0.00 50 1020.3
20260906063331 22 193 6.4 14.5 0.00 0.00 0.00 49 1020.4
20260906062813 22 217 8.0 14.5 0.00 0.00 0.00 47 1020.4
20260906062314 22 151 9.7 14.5 0.00 0.00 0.00 45 1020.4
20260906061814 22 193 6.4 11.3 0.00 0.00 0.00 45 1020.5
20260906061312 21 208 4.8 8.0 0.00 0.00 0.00 45 1020.6
20260906060831 21 204 1.6 3.2 0.00 0.00 0.00 46 1020.6
20260906060312 21 219 0.0 4.8 0.00 0.00 0.00 48 1020.5
20260906055812 21 219 0.0 4.8 0.00 0.00 0.00 53 1020.4
20260906055332 21 203 3.2 3.2 0.00 0.00 0.00 53 1020.4
20260906054831 21 203 0.0 1.6 0.00 0.00 0.00 48 1020.4
20260906054312 21 203 0.0 1.6 0.00 0.00 0.00 46 1020.4
20260906053833 21 203 0.0 3.2 0.00 0.00 0.00 47 1020.3
20260906053352 21 203 3.2 3.2 0.00 0.00 0.00 52 1020.3
20260906052851 22 150 1.6 3.2 0.00 0.00 0.00 52 1020.4
20260906052330 22 150 1.6 3.2 0.00 0.00 0.00 44 1020.3
20260906051849 22 104 0.0 1.6 0.00 0.00 0.00 41 1020.2
20260906051348 23 355 1.6 1.6 0.00 0.00 0.00 40 1020.2
20260906050827 23 349 0.0 1.6 0.00 0.00 0.00 38 1020.2
20260906050328 23 349 0.0 1.6 0.00 0.00 0.00 38 1020.2
20260906045827 23 349 0.0 1.6 0.00 0.00 0.00 37 1020.2
20260906045326 23 306 0.0 3.2 0.00 0.00 0.00 36 1020.1
20260906044827 23 307 0.0 4.8 0.00 0.00 0.00 36 1020.2
20260906044327 23 307 3.2 4.8 0.00 0.00 0.00 36 1020.2
20260906043827 23 347 1.6 4.8 0.00 0.00 0.00 36 1020.2
20260906043346 23 347 1.6 4.8 0.00 0.00 0.00 36 1020.2
20260906042847 23 344 0.0 3.2 0.00 0.00 0.00 35 1020.2
20260906042326 23 344 0.0 3.2 0.00 0.00 0.00 35 1020.1
20260906041827 24 344 1.6 3.2 0.00 0.00 0.00 34 1020.0
20260906041325 24 344 0.0 3.2 0.00 0.00 0.00 34 1020.0
20260906040827 24 344 1.6 4.8 0.00 0.00 0.00 34 1020.0
20260906040328 24 344 1.6 4.8 0.00 0.00 0.00 34 1020.1
20260906035828 24 344 3.2 4.8 0.00 0.00 0.00 33 1020.1
20260906035328 24 316 1.6 3.2 0.00 0.00 0.00 32 1020.1
20260906034829 24 315 1.6 4.8 0.00 0.00 0.00 32 1020.1
20260906034328 25 315 1.6 4.8 0.00 0.00 0.00 32 1020.0
20260906033829 25 7 1.6 3.2 0.00 0.00 0.00 32 1020.0
20260906033330 25 11 3.2 3.2 0.00 0.00 0.00 32 1020.0
20260906032829 25 12 1.6 3.2 0.00 0.00 0.00 32 1020.0
20260906032312 25 12 1.6 3.2 0.00 0.00 0.00 33 1020.0
20260906031815 25 12 0.0 3.2 0.00 0.00 0.00 33 1020.0
20260906031317 25 12 1.6 3.2 0.00 0.00 0.00 33 1020.0
20260906030817 25 12 3.2 3.2 0.00 0.00 0.00 32 1020.0
20260906030339 26 12 0.0 1.6 0.00 0.00 0.00 31 1019.9
20260906025820 26 12 0.0 1.6 0.00 0.00 0.00 30 1019.8
20260906025321 26 12 0.0 4.8 0.00 0.00 0.00 30 1019.8
20260906024837 26 12 1.6 6.4 0.00 0.00 0.00 30 1019.6
20260906024317 26 347 1.6 8.0 0.00 0.00 0.00 30 1019.3
20260906023819 27 344 4.8 12.9 0.00 0.00 0.00 29 1019.2
20260906023321 27 354 6.4 14.5 0.00 0.00 0.00 28 1019.2
20260906022820 27 354 6.4 12.9 0.00 0.00 0.00 28 1019.1
20260906022318 27 27 8.0 12.9 0.00 0.00 0.00 28 1019.0
20260906021817 27 353 6.4 12.9 0.00 0.00 0.00 28 1018.9
20260906021315 27 334 4.8 11.3 0.00 0.00 0.00 28 1019.0
20260906020817 27 33 4.8 9.7 0.00 0.00 0.00 27 1018.9
20260906020317 28 32 4.8 11.3 0.00 0.00 0.00 26 1018.8
20260906015837 28 352 4.8 11.3 0.00 0.00 0.00 26 1018.8
20260906015315 28 327 4.8 9.7 0.00 0.00 0.00 29 1018.7
20260906014814 28 27 6.4 11.3 0.00 0.00 0.00 28 1018.8
20260906014332 28 37 8.0 17.7 0.00 0.00 0.00 26 1018.7
20260906013811 29 23 9.7 17.7 0.00 0.00 0.00 26 1018.7
20260906013309 29 36 11.3 17.7 0.00 0.00 0.00 24 1018.6
20260906012828 29 32 9.7 16.1 0.00 0.00 0.00 25 1018.6
20260906012328 30 18 11.3 16.1 0.00 0.00 0.00 24 1018.7
20260906011829 30 347 11.3 19.3 0.00 0.00 0.00 24 1018.6
20260906011329 30 27 9.7 19.3 0.00 0.00 0.00 24 1018.6
20260906010811 30 312 9.7 16.1 0.00 0.00 0.00 23 1018.6
20260906010312 30 33 11.3 20.9 0.00 0.00 0.00 23 1018.6
20260906005813 30 337 11.3 20.9 0.00 0.00 0.00 22 1018.6
20260906005313 31 24 9.7 20.9 0.00 0.00 0.00 22 1018.5
20260906004812 31 23 9.7 20.9 0.00 0.00 0.00 22 1018.5
20260906004311 31 77 12.9 19.3 0.00 0.00 0.00 22 1018.4
20260906003813 31 29 9.7 17.7 0.00 0.00 0.00 22 1018.5
20260906003331 31 4 11.3 19.3 0.00 0.00 0.00 21 1018.5
20260906002811 31 349 11.3 17.7 0.00 0.00 0.00 21 1018.4
20260906002310 31 27 12.9 19.3 0.00 0.00 0.00 20 1018.6
20260906001812 31 333 11.3 19.3 0.00 0.00 0.00 21 1018.5
20260906001333 31 339 11.3 17.7 0.00 0.00 0.00 21 1018.6
20260906000809 31 27 8.0 16.1 0.00 0.00 0.00 21 1018.6
20260906000311 32 39 11.3 14.5 0.00 0.00 0.00 20 1018.6
20260905235810 32 26 6.4 14.5 0.00 0.00 0.00 20 1018.6
20260905235357 32 345 6.4 14.5 0.00 0.00 0.00 20 1018.6
20260905234812 32 338 8.0 12.9 0.00 0.00 0.00 19 1018.5
20260905234312 32 24 4.8 8.0 0.00 0.00 0.00 19 1018.6
20260905233815 32 350 3.2 6.4 0.00 0.00 0.00 19 1018.5
20260905233315 32 334 3.2 6.4 0.00 0.00 0.00 19 1018.5
20260905232834 32 18 3.2 6.4 0.00 0.00 0.00 19 1018.4
20260905232317 32 19 4.8 8.0 0.00 0.00 0.00 18 1018.4
20260905231819 32 16 4.8 8.0 0.00 0.00 0.00 18 1018.3
20260905231318 33 333 3.2 8.0 0.00 0.00 0.00 17 1018.2
20260905230819 33 314 1.6 11.3 0.00 0.00 0.00 17 1018.3
20260905230318 33 285 8.0 12.9 0.00 0.00 0.00 18 1018.3
20260905225819 33 276 8.0 12.9 0.00 0.00 0.00 18 1018.3
20260905225340 33 255 3.2 17.7 0.00 0.00 0.00 18 1018.4
20260905224821 33 246 9.7 17.7 0.00 0.00 0.00 18 1018.3
20260905224341 32 222 3.2 17.7 0.00 0.00 0.00 18 1018.4
20260905223820 32 225 11.3 17.7 0.00 0.00 0.00 17 1018.3
20260905223318 32 219 6.4 16.1 0.00 0.00 0.00 17 1018.3
20260905222833 32 285 8.0 16.1 0.00 0.00 0.00 17 1018.3
20260905222312 33 226 8.0 16.1 0.00 0.00 0.00 17 1018.4
20260905221815 33 205 6.4 19.3 0.00 0.00 0.00 17 1018.4
20260905221315 33 199 9.7 19.3 0.00 0.00 0.00 17 1018.5
20260905220813 33 192 9.7 17.7 0.00 0.00 0.00 17 1018.5